Location: Kergonan
(48.2337°N, 4.5518°W)
Time: 19:51:22
(UTC+00:00)

EXPRESS MD2 - Pass Details

Date: 18 January 2020
Orbit: 262 x 4041 km, 49.9° (Epoch: 21 February)

Event Time Altitude Azimuth Distance (km) Brightness Sun altitude
Exits shadow 06:44:55 21° 261° (W) 931 4.0 -12.6°
Maximum altitude 06:46:42 78° 346° (NNW) 332 2.1 -12.3°
Drops below altitude 10° 06:48:54 10° 74° (ENE) 1,098 5.8 -12.0°
Sets 06:50:33 0° 76° (ENE) 1,870 7.1 -11.7°
